Regional Weather Roundup
Issued by NWS

Home | Current Version | Previous Version | Text Only | Print | Product List | Glossary Off
Versions: 1 2 3 4 5 6 7 8 9 10 11 12 13 14 15 16 17 18 19 20 21 22 23 24 25 26 27 28 29 30 31 32 33 34 35 36 37 38 39 40 41 42 43 44 45 46 47 48 49 50

000
ASUS43 KLOT 012012
RWRIL

ILLINOIS REGIONAL WEATHER ROUNDUP
NATIONAL WEATHER SERVICE CHICAGO/ROMEOVILLE IL
300 PM CDT SAT OCT 01 2016

NOTE: "FAIR" INDICATES FEW OR NO CLOUDS BELOW 12,000 FEET WITH NO
SIGNIFICANT WEATHER AND/OR OBSTRUCTIONS TO VISIBILITY.

* THESE STATIONS ARE NOT UNDER NWS QUALITY CONTROL. THEY ALSO MAY NOT
  REPORT WEATHER SUCH AS PRECIPITATION OR FOG.

ILZ001-002-007-009-015-016-024-012100-
NORTHWEST ILLINOIS

CITY           SKY/WX    TMP DP  RH WIND       PRES   REMARKS
MOLINE         CLOUDY    68  60  75 W5        30.00F
STERLING*      CLOUDY    66  60  81 N9        30.00S
SAVANNA*       CLOUDY    64  60  85 NE7       30.01S
$$

ILZ003-004-008-010-011-017-018-012100-
NORTH CENTRAL ILLINOIS

CITY           SKY/WX    TMP DP  RH WIND       PRES   REMARKS
ROCKFORD       CLOUDY    64  58  80 N10       30.02S
FREEPORT*      CLOUDY    64  60  86 N5        30.02F
ROCHELLE*      CLOUDY    63  57  81 NE5       30.01S
DE KALB*       DRIZZLE   63  58  83 NE5       30.00F
$$

ILZ005-006-012>014-019>023-012100-
NORTHEAST ILLINOIS

CITY           SKY/WX    TMP DP  RH WIND       PRES   REMARKS
CHICAGO-OHARE  RAIN      61  59  93 N8        29.97F FOG
CHICAGO-MIDWAY LGT RAIN  63  58  83 W7        29.96F
AURORA         CLOUDY    62  60  93 CALM      30.00S
LANSING*       CLOUDY    65  62  88 NE6       29.97S
JOLIET*        CLOUDY    64  61  88 NW5       29.98F
WAUKEGAN       LGT RAIN  61  59  93 N6        29.98S FOG
DUPAGE AIRPORT LGT RAIN  64  59  83 NW6       29.98F
KANKAKEE*      CLOUDY    63  58  84 W6        29.99S
WHEELING       LGT RAIN  61  59  93 N7        29.99S FOG
MORRIS*        CLOUDY    63  60  90 CALM      29.98S
ROMEOVILLE*    CLOUDY    64  63  96 NW7       29.98F
NORTHERLY ISL    N/A     63  60  90 N2          N/A
$$

LMZ740>746-012100-
SOUTHERN LAKE MICHIGAN

STATION/POSITION SKY/WX   TEMP    WIND        PRES    VSBY  WAVE
                          AIR SEA DIR/SP/G                  HT/PER
                          (F)     (DEG/KT/KT) (MB)    (MI)  (FT/S)
SOUTHERN BUOY              63 67   70/  8/ 10 1014.8F         2/ 7
WILMETTE HARBOR            60 61  330/  4/  6   N/A           3/ 5
HARRISON CRIB              63      10/  3/  3   N/A
BURNHAM HARBOR             63     340/  2/  5   N/A
CALUMET HARBOR             62      60/  5/  7 1014.5F
BURNS HARBOR               64      50/  7/  9 1014.9F
MICHIGAN CITY              61     360/  3/  3   N/A
MICHIGAN CITY 6N           63 65   10/  2/  4   N/A           3/ 6
ST. JOSEPH                 55 52   CALM  /  2 1015.1          2/ 6
$$

ILZ025>027-034>036-040-047-049-050-058-095>099-012100-
WEST-CENTRAL ILLINOIS

CITY           SKY/WX    TMP DP  RH WIND       PRES   REMARKS
QUINCY         CLOUDY    69  58  67 W8        30.01F
GALESBURG*     PTSUNNY   66  60  80 W7        30.00F
MACOMB*        CLOUDY    65  61  86 NW9       30.03F
JACKSONVILLE*  CLOUDY    66  61  83 NW10      30.01S
PITTSFIELD*    CLOUDY    68  60  75 NW7       30.03S
$$

ILZ028>032-037-038-041>044-048-051>054-059>061-012100-
CENTRAL ILLINOIS

CITY           SKY/WX    TMP DP  RH WIND       PRES   REMARKS
PONTIAC        MOSUNNY   65  61  88 N6        29.99F
BLOOMINGTON    MOSUNNY   71  55  56 N9        29.98F
DECATUR        MOSUNNY   71  56  58 W6        29.98F
PEORIA         MOSUNNY   70  58  65 VRB6      29.98F
LACON*         MOSUNNY   70  54  57 NE3       29.97F
LINCOLN*       SUNNY     70  59  69 W3        29.99S
SPRINGFIELD    MOSUNNY   69  60  73 VRB3      30.00S
TAYLORVILLE    CLOUDY    67  58  73 W7        30.00F
$$

ILZ033-039-045-046-055>057-062-063-012100-
EAST-CENTRAL ILLINOIS

CITY           SKY/WX    TMP DP  RH WIND       PRES   REMARKS
CHAMPAIGN      CLOUDY    70  54  56 VRB3      29.98S
RANTOUL*       CLOUDY    65  58  77 NE3       29.98F
MATTOON        MOSUNNY   71  55  56 NW7       29.97F
PARIS*         LGT RAIN  63  60  90 CALM      29.99S
$$

ILZ079-100>102-012100-
SOUTHWEST ILLINOIS

CITY           SKY/WX    TMP DP  RH WIND       PRES   REMARKS
ALTON          PTSUNNY   68  59  73 NW9       30.01F
BELLEVILLE     PTSUNNY   68  61  77 W10       30.00F
CAHOKIA*       CLOUDY    71  57  61 NW7       30.01F
SPARTA*        CLOUDY    68  62  78 W6        30.03F
$$

ILZ064>066-069>071-074>076-080>082-084>086-088>090-092>094-012100-
SOUTH-CENTRAL ILLINOIS

CITY           SKY/WX    TMP DP  RH WIND       PRES   REMARKS
CARBONDALE     CLOUDY    68  61  78 NW5       30.02F
CAIRO*         CLOUDY    69  59  71 W7        30.03S
EFFINGHAM*     LGT RAIN  69  60  72 W6        30.00S
MARION         PTSUNNY   68  63  83 W12       30.03S
MT. VERNON     CLOUDY    68  57  68 W5        30.01S
CENTRALIA*     CLOUDY    67  64  89 W6        30.00S
SALEM*         CLOUDY    73  58  61 NW5       29.99F
METROPOLIS*    PTSUNNY   69  60  72 SW7       30.03F
$$

ILZ067-068-072-073-078-083-087-091-012100-
SOUTHEAST ILLINOIS

CITY           SKY/WX    TMP DP  RH WIND       PRES   REMARKS
LAWRENCEVILLE  PTSUNNY   71  58  63 SE5       29.98F
FLORA*         PTSUNNY   69  62  79 W6        29.99S
FAIRFIELD*     CLOUDY    71  60  68 W5        29.98S
HARRISBURG*    CLOUDY    70  62  77 W8        30.01S
ROBINSON*      MOSUNNY   70  60  71 E3        29.99F
CARMI*         SUNNY     67  63  89 CALM      29.99S
$$

ABBREVIATIONS USED IN REMARKS
   TC - TEMPERATURE IN CELSIUS
  WCI - WIND CHILL INDEX
   HX - HEAT INDEX
  VSB - VISIBILITY
$$




USA.gov is the U.S. government's official web portal to all federal, state and local government web resources and services.